星链-30939 (STARLINK-30939 )

导读

STARLINK-30939是美国太空探索技术公司SpaceX星链互联网卫星星座的一员,于2023年11月20日发射入轨。星链项目旨在构建全球卫星互联网通信网络,该卫星入轨后承担全球范围低延迟、高速率的互联网接入服务,为偏远地区、海上以及航空场景提供网络覆盖,增强星链星座的服务能力。

Basic Information
目录编号:
58393
目录名称:
STARLINK-30939
国际标识:
2023-178V
轨道中心:
EARTH
卫星名称:
星链-30939
卫星全名:
星链-30939 (STARLINK-30939 )
卫星状态:
在轨 (已飞行941 天)
发射日期:
2023-11-20 UTC
国别 :
美国 (US)
星等 :
--
Orbit Information
数据来源 国际轨道数据
星历时间: 2026-06-17T19:52:46+0800
22小时前
查看轨道信息
半长轴: 6840.867km
偏心率: 0.0001252
轨道倾角: 53.160°
近地点辐角 86.807°
升交点赤经 255.958°
平近点角 273.307°
近地点: 461.873km
远地点: 463.587km
周期: 93.848分钟
每日圈数: 15.343912
Detailed Information
固有亮度:
5
最大亮度:
0.3
卫星平台:
Starlink v2.0 mini
覆盖范围:
全球
运营商:
太空探索技术公司
运营商所在国:
美国
制造商(研发单位):
太空探索技术公司
制造商所在国:
美国
使用方式:
暂无
Satellite Introduction
星链(Starlink)计划是由太空探索技术公司(SpaceX)提出的一个巨型低轨卫星互联网星座项目,计划在2019年至2024年间在太空搭建由约1.2万颗卫星组成的“星链”网络,其中1584颗将部署在地球上空550千米处的近地轨道,并从2020年开始工作。该卫星仍在工作。
2D Orbit Map
3D Orbit Map
Orbit Altitude Analysis Chart
Orbit Inclination Analysis Chart
Orbit Comprehensive Analysis Chart
View Comprehensive Chart